Погода в Юбилейном

Россия / Забайкальский край     50°16′06″N   118°21′34″E
В апреле 2022 года жителям России запретили посещать сайт meteo.paraplan.net по решению Генеральной прокуратуры. Аудитория сайта уменьшилась в 10 раз. Владельцы сайта не видят смысла в поддержке погодного сервера в таких условиях. Сайт будет закрыт в октябре.
темп.,
°C
ветер,
м/с
пор.,
м/с
влажн.,
%
обл.,
%
осадки,
мм/ч
давл.,
гПа
погр.,
м
25 сентября, вс
вс2500:00+7сз229049 0.4 100518
03:00+5з22870 0.4 100711
06:00+4з228399 0.0 100811
09:00+7зсз385998 0.0 1009367
12:00+10зсз9104728 0.0 10101537
15:00+11зсз101429100 0.0 10092985
18:00+9зсз912306 0.0 10102674
21:00+4з512380 0.0 1013280
26 сентября, пн
пн2600:00+3з4949100 0.0 1014180
03:00+1з2258100 0.0 101511
06:00+2юз3456100 0.0 101573
09:00+4зюз4771100 0.1 1016470
12:00+8зсз4755100 0.1 10151367
15:00+8зсз565157 0.1 10141327
18:00+9зюз234667 0.0 1014139
21:00+5ююв226131 0.0 101413
27 сентября, вт
вт2700:00+4ююв226759 0.0 101321
03:00+2всв22796 0.0 101111
06:00+1вюв2282100 0.0 100715
09:00+6ююз2353100 0.0 1004193
12:00+19з7112670 0.0 1000937
15:00+18зсз9112715 0.0 10021138
18:00+14зсз71034100 0.0 1005917
21:00+8сз3445100 0.0 100849
28 сентября, ср
ср2800:00+7ссз2345100 0.0 100961
03:00+7ссз1144100 0.0 101013
06:00+4ссв115181 0.0 101110
09:00+8св2237100 0.0 1012208
12:00+12всв3223100 0.0 1010973
15:00+14в4322100 0.0 10081088
18:00+13в4725100 0.0 1007391
21:00+10всв61227100 0.0 1006399
29 сентября, чт
чт2900:00+6св41035100 0.0 1004195
03:00+6св3550100 0.0 100294
06:00+4с3254100 0.0 100227
09:00+8зсз34435 0.0 1002266
12:00+12зсз9104950 0.0 10021205
15:00+10зсз1013459 0.0 10041421
18:00+7сз812517 0.0 10081352
21:00+3з33715 0.0 101242